Clear Lake, IA

7:23 PM CST on February 24, 2017 (GMT -0600)
Mason City Municipal

Weather History for KMCW - November, 2011

Change the Weather History Date:

Tuesday, November 22, 2011

  Actual Average Record
Temperature  
Mean Temperature 40 °F 30 °F  
Max Temperature 46 °F 39 °F 65 °F (1966)
Min Temperature 33 °F 21 °F -5 °F (1935)
Degree Days  
Heating Degree Days 25 35  
Month to date heating degree days 594 639  
Since 1 July heating degree days 1232 1377  
Cooling Degree Days 0 0  
Month to date cooling degree days 0 0  
Year to date cooling degree days 789 616  
Moisture  
Dew Point 35 °F    
Average Humidity 88    
Maximum Humidity 100    
Minimum Humidity 76    
Precipitation  
Precipitation 0.00 in 0.06 in 1.13 in (1963)
Month to date precipitation 0.20 1.44  
Year to date precipitation 20.89 33.52  
Snow  
Snow 0.00 in 0.10 in 6.40 in (1909)
Month to date snowfall 0.0 2.4  
Since 1 July snowfall 0.0 2.8  
Since 1 September snowfall 0.0 2.8  
Snow Depth 0.00 in    
Sea Level Pressure  
Sea Level Pressure 30.10 in    
Wind  
Wind Speed 5 mph (NE)    
Max Wind Speed 10 mph    
Max Gust Speed 14 mph    
Visibility 3 miles    
Events      
T = Trace of Precipitation, MM = Missing Value Source: NWS Daily Summary

Daily Weather History Graph

Daily Weather History Graph

Search for Another Location

Airport or City:

Trip Planner

Search our weather history database for the weather conditions in past years. The results will help you decide how hot, cold, wet, or windy it might be!

Date:

Astronomy

Nov. 22, 2011 Rise Set
Actual Time 7:14 AM CST 4:43 PM CST
Civil Twilight 6:43 AM CST 5:15 PM CST
Nautical Twilight 6:08 AM CST 5:49 PM CST
Astronomical Twilight 5:34 AM CST 6:23 PM CST
Moon 4:02 AM CST (11/22) 2:46 PM CST (11/22)
Length of Visible Light 10h 31m
Length of Day
9h 29m
Waning Crescent, 9% of the Moon is Illuminated
Nov 22
Waning Crescent
Nov 25
New
Dec 2
First Quarter
Dec 10
Full
Dec 17
Last Quarter

Hourly Weather History & Observations

Time (CST) Temp. Windchill Dew Point Humidity Pressure Visibility Wind Dir Wind Speed Gust Speed Precip Events Conditions
12:51 AM 33.8 °F 26.4 °F 30.2 °F 87% 30.17 in 8.0 mi ESE 9.2 mph - N/A   Mostly Cloudy
12:53 AM 34.0 °F 26.0 °F 30.9 °F 89% 30.20 in 8.0 mi ESE 10.4 mph - N/A   Mostly Cloudy
1:53 AM 35.1 °F 28.6 °F 30.9 °F 85% 30.18 in 8.0 mi ESE 8.1 mph - N/A   Overcast
2:53 AM 35.1 °F 29.3 °F 30.9 °F 85% 30.16 in 7.0 mi ESE 6.9 mph - N/A   Overcast
3:53 AM 35.1 °F 30.1 °F 32.0 °F 89% 30.13 in 6.0 mi NE 5.8 mph - N/A   Overcast
4:27 AM 35.6 °F 29.2 °F 32.0 °F 87% 30.11 in 6.0 mi NE 8.1 mph - N/A   Overcast
4:53 AM 34.0 °F 27.2 °F 33.1 °F 96% 30.13 in 2.0 mi ENE 8.1 mph - N/A   Overcast
5:02 AM 33.8 °F 27.0 °F 33.8 °F 100% 30.10 in 1.8 mi ENE 8.1 mph - N/A   Overcast
5:17 AM 33.8 °F 27.0 °F 33.8 °F 100% 30.10 in 1.5 mi ENE 8.1 mph - N/A   Overcast
5:53 AM 34.0 °F 28.0 °F 33.1 °F 96% 30.13 in 1.2 mi East 6.9 mph - N/A   Overcast
7:37 AM 33.8 °F 26.4 °F 33.8 °F 100% 30.10 in 2.0 mi East 9.2 mph - N/A   Overcast
7:44 AM 33.8 °F 27.0 °F 33.8 °F 100% 30.10 in 1.2 mi East 8.1 mph - N/A   Overcast
7:53 AM 34.0 °F 28.0 °F 33.1 °F 96% 30.13 in 1.0 mi East 6.9 mph - N/A   Overcast
8:02 AM 33.8 °F 27.7 °F 33.8 °F 100% 30.10 in 0.8 mi East 6.9 mph - N/A   Overcast
8:32 AM 33.8 °F 27.7 °F 33.8 °F 100% 30.10 in 1.0 mi East 6.9 mph - N/A   Overcast
8:53 AM 34.0 °F 28.8 °F 34.0 °F 100% 30.13 in 1.2 mi East 5.8 mph - N/A   Overcast
9:53 AM 35.6 °F 30.7 °F 35.6 °F 100% 30.09 in 1.8 mi East 5.8 mph - N/A   Overcast
10:04 AM 35.6 °F 31.7 °F 35.6 °F 100% 30.09 in 2.0 mi ESE 4.6 mph - N/A   Overcast
10:53 AM 37.9 °F - 36.0 °F 93% 30.10 in 2.5 mi Calm Calm - N/A   Overcast
11:11 AM 37.4 °F - 35.6 °F 93% 30.07 in 2.5 mi Calm Calm - N/A   Overcast
11:29 AM 39.2 °F - 37.4 °F 93% 30.06 in 2.5 mi Calm Calm - N/A   Overcast
11:36 AM 39.2 °F - 37.4 °F 93% 30.06 in 2.5 mi Calm Calm - N/A   Overcast
11:53 AM 39.0 °F - 37.0 °F 93% 30.07 in 2.5 mi Calm Calm - N/A   Overcast
12:21 PM 41.0 °F - 37.4 °F 87% 30.03 in 3.0 mi Calm Calm - N/A   Overcast
12:40 PM 42.8 °F 41.1 °F 37.4 °F 81% 30.02 in 3.0 mi North 3.5 mph - N/A   Haze
12:53 PM 42.1 °F - 37.0 °F 82% 30.03 in 3.0 mi Calm Calm - N/A   Haze
1:06 PM 42.8 °F 41.1 °F 37.4 °F 81% 30.01 in 3.0 mi NE 3.5 mph - N/A   Haze
1:53 PM 44.1 °F 39.5 °F 37.0 °F 76% 30.01 in 4.0 mi NNW 8.1 mph - N/A   Haze
2:53 PM 45.0 °F 40.1 °F 37.9 °F 76% 30.02 in 4.0 mi NNW 9.2 mph - N/A   Haze
4:53 PM 36.0 °F 30.3 °F 34.0 °F 93% 30.06 in 3.0 mi NNW 6.9 mph - N/A   Scattered Clouds
5:03 PM 39.2 °F 34.2 °F 35.6 °F 87% 30.04 in 4.0 mi NNW 6.9 mph - N/A   Mostly Cloudy
5:53 PM 39.9 °F 36.7 °F 37.0 °F 89% 30.08 in 4.0 mi North 4.6 mph - N/A   Overcast
6:53 PM 39.0 °F 36.8 °F 36.0 °F 89% 30.09 in 4.0 mi North 3.5 mph - N/A   Overcast
7:12 PM 37.4 °F - 35.6 °F 93% 30.07 in 3.0 mi Calm Calm - N/A   Overcast
7:43 PM 33.8 °F 28.6 °F 33.8 °F 100% 30.08 in 3.0 mi NW 5.8 mph - N/A   Partly Cloudy
7:53 PM 34.0 °F 28.8 °F 33.1 °F 96% 30.11 in 2.5 mi WNW 5.8 mph - N/A   Mostly Cloudy
8:33 PM 37.4 °F 33.8 °F 35.6 °F 93% 30.09 in 3.0 mi WNW 4.6 mph - N/A   Overcast
8:44 PM 37.4 °F 33.8 °F 35.6 °F 93% 30.09 in 2.5 mi WNW 4.6 mph - N/A   Overcast
8:53 PM 37.0 °F 34.5 °F 36.0 °F 96% 30.12 in 2.5 mi WNW 3.5 mph - N/A   Overcast
9:08 PM 37.4 °F 33.8 °F 35.6 °F 93% 30.10 in 3.0 mi West 4.6 mph - N/A   Overcast
9:53 PM 37.9 °F - 36.0 °F 93% 30.13 in 3.0 mi Calm Calm - N/A   Overcast
10:53 PM 37.9 °F - 36.0 °F 93% 30.13 in 3.0 mi Calm Calm - N/A   Overcast
11:46 PM 37.4 °F - 37.4 °F 100% 30.12 in 3.0 mi Calm Calm - N/A   Overcast
11:53 PM 37.9 °F - 37.0 °F 97% 30.14 in 3.0 mi Calm Calm - N/A   Overcast